Weather in Baragkhan

Russia / Republic of Buryatia     54°09′12″N   110°09′43″E
temp.,
°C
wind,
m/s
gust,
m/s
humid.,
%
clouds,
%
prec.,
mm/h
press.,
hPa
HPBL,
m
20 april, tue
tue2023:00−1nw113791 0.0 101018
02:00−1nnw114236 0.0 100731
05:00−3nw225035 0.0 100617
08:00+1wnw126099 0.4 1009294
11:00+6s34498 0.5 10061003
14:00+6wnw4540100 0.6 10071217
17:00+4wnw4541100 0.0 1009700
20:00+1wnw4457100 0.0 1011152
21 april, wed
wed2123:00−1wnw226487 0.0 101159
02:00−1nw2358100 0.0 101199
05:00−2nw2262100 0.2 1012106
08:00−1wnw1257100 0.3 1014628
11:00+1wnw3346100 0.0 10151255
14:00+1wnw4539100 0.1 10161222
17:000wnw563426 0.0 10191452
20:00−4wnw344689 0.0 1022142
22 april, thu
thu2223:00−6wnw345726 0.0 102586
02:00−7wnw22678 0.0 102752
05:00−8nw22703 0.0 102932
08:00−5nne22420 0.0 1031747
11:00−1nne22240 0.0 10311695
14:00+1nnw322283 0.0 10311846
17:00+1nw3327100 0.0 10321403
20:00−3nw334456 0.0 103568
23 april, fri
fri2323:00−4nw22465 0.0 103922
02:00−6nw01491 0.0 104211
05:00−7nne11500 0.0 104418
08:00−4ene22371 0.0 1045504
11:00+1e22250 0.0 10441301
14:00+4se122065 0.0 10421713
17:00+4wnw222515 0.0 10411485
20:00−1wnw34455 0.0 104396
24 april, sat
sat2423:00−2wnw2147100 0.0 104424
02:00−3n1147100 0.0 104413
05:00−4n114699 0.0 104413
08:00−1ne223895 0.0 1043430
11:00+3ene212878 0.0 1039671
14:00+7e212198 0.0 1035897
17:00+8ese111999 0.0 1031901
20:00+4wnw1127100 0.0 103110